User: anonymous   Login
Location: Ocean City
(38.3360°N, 75.0850°W)
Time: 10:55:46
(UTC-04:00)
Language:

EO-79 - Orbit

View from above orbital plane
View from above orbital plane
View from above satellite
View from above satellite

Ground track
Ground track

The orbit data is extracted from the following two-line orbital elements,

1 40025U 14033R   19143.82693110  .00000157  00000-0  22663-4 0  9996
2 40025  97.9065  63.5520 0013323 139.2001 221.0215 14.88927868267478
Epoch (UTC): 23 May 2019 19:50:46
Eccentricity: 0.0013323
inclination: 97.9065°
perigee height: 592 km
apogee height: 610 km
right ascension of ascending node: 63.5520°
argument of perigee: 139.2001°
revolutions per day: 14.88927868
mean anomaly at epoch: 221.0215°
orbit number at epoch: 26747

The dashed part of the orbit path shows where the satellite is in the earth's shadow,  

DLR